Location: Kellogg
(38.0159°N, 90.0546°W)
Time: 16:15:45
(UTC+00:00)

Altair - Pass Details

Date: 18 September 2024
Orbit: 1501 x 1682 km, 47.2° (Epoch: 15 October)

Event Time Altitude Azimuth Distance (km) Brightness Sun altitude
Exits shadow 06:31:31 24° 75° (ENE) 2,956 9.0 -49.4°
Drops below altitude 10° 06:35:04 10° 65° (ENE) 3,936 9.9 -49.2°
Sets 06:38:23 0° 60° (ENE) 4,935 10.6 -49.0°
